[[{"header":{"parameterUnit":"m.s-1","parameterCategory":1,"la1":30.2992,"la2":30.254,"lo1":-89.0895,"lo2":-89.0443,"dy":0.0025,"dx":0.0025,"nx":19,"ny":19,"refTime":"2026-05-24T03:00:00:Z","depth":0,"parameterNumber":2,"parameterNumberName":"U-component_of_WINDS"},"data":[0,0,0,-3.8711,-3.8711,-3.8696,-3.8696,-3.8705,-3.8706,0,0,0,0,0,0,0,0,0,0,0,-3.8732,-3.8733,-3.8711,-3.8711,-3.8696,-3.8696,-3.8705,-3.8706,0,0,0,0,0,0,0,0,0,0,0,-3.8732,-3.8733,-3.8733,-3.8711,-3.8696,-3.8696,-3.8705,-3.8706,0,0,0,0,0,0,0,0,0,0,-3.8716,-3.8752,-3.8733,-3.8734,-3.8711,-3.8696,-3.8696,-3.8706,-3.8706,-3.8724,0,-3.8745,0,-3.8725,-3.8708,-3.8708,0,0,0,-3.8698,-3.8752,-3.8733,-3.8734,-3.8711,-3.8696,-3.8699,-3.8706,-3.8706,-3.8725,-3.8744,-3.8744,-3.8726,-3.8708,-3.8709,-3.8853,-3.8854,0,0,-3.8699,-3.8739,-3.8733,-3.8734,-3.8738,-3.87,-3.8699,-3.8706,-3.873,-3.8744,-3.8744,-3.8726,-3.8709,-3.8709,-3.8852,-3.8853,0,0,0,-3.871,-3.874,-3.872,-3.8734,-3.8729,-3.87,-3.8699,-3.8729,-3.8719,-3.8744,-3.8726,-3.8709,-3.8709,-3.885,-3.8852,-3.8953,0,0,0,-3.871,-3.8746,-3.8721,-3.8745,-3.873,-3.8729,-3.8723,-3.8719,-3.8718,-3.8726,-3.8709,-3.871,-3.8849,-3.8851,-3.8947,-3.8993,0,0,0,-3.8727,-3.8748,-3.8752,-3.8747,-3.8742,-3.8728,-3.8718,-3.8718,-3.8708,-3.8708,-3.871,-3.8848,-3.8851,-3.8941,-3.8984,-3.9041,0,0,0,-3.8758,-3.8842,-3.8754,-3.8841,-3.8743,-3.8791,-3.8717,-3.8751,-3.8764,-3.8709,-3.8849,-3.8852,-3.894,-3.8979,-3.9036,-3.9095,-3.9124,0,0,-3.8886,-3.8859,-3.8907,-3.8828,-3.8902,-3.879,-3.8878,-3.8852,-3.8816,-3.8843,-3.8846,-3.8949,-3.8984,-3.904,-3.9275,-3.9298,0,0,0,-3.8961,-3.8996,-3.9007,-3.902,-3.9002,-3.899,-3.8946,-3.8936,-3.8957,-3.8838,-3.8984,-3.9004,-3.9035,-3.9062,-3.9081,-3.9105,-3.8867,-3.8866,-3.8866,-3.92,-3.9149,-3.9224,-3.9172,-3.9186,-3.9139,-3.9145,-3.9124,-3.9069,-3.9105,-3.9112,-3.926,-3.9293,-3.9307,-3.9333,-3.914,-3.9141,-3.9141,-3.9141,-3.9382,-3.9423,-3.9347,-3.9393,-3.9339,-3.9378,-3.9336,-3.9296,-3.9324,-3.9251,-3.9276,-3.92,-3.9334,-3.9354,-3.9148,-3.9147,-3.9146,-3.9146,-3.9145,-3.9531,-3.9541,-3.9528,-3.9541,-3.9557,-3.9501,-3.953,-3.948,-3.9433,-3.9458,-3.9459,-3.9457,-3.9448,-3.9463,-3.9463,-3.9464,-3.9464,-3.9464,-3.9465,-3.969,-3.9671,-3.9702,-3.969,-3.9691,-3.9686,-3.9641,-3.9641,-3.9628,-3.9589,-3.9588,-3.9529,-3.9358,-3.9315,-3.9473,-3.9471,-3.947,-3.9469,-3.9469,-3.989,-3.9837,-3.9885,-3.9886,-3.9867,-3.9885,-3.9821,-3.9825,-3.9818,-3.9834,-3.977,-3.9652,-3.962,-3.9604,-3.9568,-3.9781,-3.9781,-3.9782,-3.9782,-4.0014,-3.9994,-4.003,-4.0036,-4.0035,-3.9982,-4.0037,-4.0003,-3.9958,-3.9951,-3.9913,-3.9861,-3.9847,-3.9824,-3.9803,-3.9768,-4.0028,-4.0028,-4.0029,-4.0134,-4.0111,-4.0167,-4.0123,-4.0104,-4.0089,-4.0139,-4.0148,-4.0087,-4.0037,-3.9943,-3.9933,-3.9849,-3.9824,-3.9772,-3.974,-3.9676,0,0]},{"header":{"parameterUnit":"m.s-1","parameterCategory":1,"la1":30.2992,"la2":30.254,"lo1":-89.0895,"lo2":-89.0443,"dy":0.0025,"dx":0.0025,"nx":19,"ny":19,"refTime":"2026-05-24T03:00:00:Z","depth":0,"parameterNumber":3,"parameterNumberName":"V-component_of_WINDS"},"data":[0,0,0,1.2799,1.2796,1.2601,1.26,1.2374,1.2372,0,0,0,0,0,0,0,0,0,0,0,1.2876,1.2876,1.2799,1.2795,1.2601,1.26,1.2374,1.2372,0,0,0,0,0,0,0,0,0,0,0,1.2877,1.2876,1.2875,1.2795,1.2601,1.26,1.2375,1.2512,0,0,0,0,0,0,0,0,0,0,1.2696,1.2788,1.2876,1.2875,1.2794,1.2602,1.26,1.2518,1.2503,1.2474,0,1.2458,0,1.2412,1.2359,1.2358,0,0,0,1.2778,1.2801,1.2731,1.2875,1.2792,1.2602,1.2684,1.2509,1.2493,1.2454,1.2455,1.2446,1.2409,1.2358,1.2357,1.2259,1.2259,0,0,1.2789,1.285,1.2743,1.2722,1.276,1.269,1.2678,1.2499,1.2501,1.2454,1.244,1.2405,1.2356,1.2355,1.2259,1.2259,0,0,0,1.2831,1.2859,1.2793,1.2732,1.2696,1.2685,1.2671,1.2509,1.2482,1.2437,1.2402,1.2355,1.2353,1.2258,1.2259,1.2339,0,0,0,1.2837,1.2883,1.2798,1.2834,1.27,1.2601,1.2686,1.2495,1.2473,1.2403,1.2355,1.2351,1.2258,1.2259,1.2336,1.2366,0,0,0,1.2882,1.2888,1.2868,1.2838,1.2757,1.2602,1.2565,1.2489,1.2452,1.2358,1.235,1.2257,1.2258,1.2333,1.2361,1.236,0,0,0,1.2946,1.2937,1.287,1.2846,1.276,1.2656,1.2566,1.2483,1.2412,1.2354,1.2258,1.2259,1.2332,1.2358,1.2358,1.2372,1.2384,0,0,1.2969,1.2942,1.2923,1.2857,1.2783,1.268,1.2614,1.2486,1.2417,1.2314,1.2311,1.2337,1.2361,1.236,1.2427,1.2437,0,0,0,1.295,1.2938,1.2904,1.2844,1.2751,1.2672,1.255,1.2503,1.2414,1.2379,1.2334,1.2346,1.2342,1.2346,1.2355,1.2348,1.2263,1.2263,1.2263,1.3069,1.2988,1.295,1.2846,1.2787,1.2663,1.2606,1.252,1.2449,1.244,1.2409,1.2461,1.2468,1.2474,1.2468,1.2409,1.2409,1.2409,1.2409,1.3095,1.3065,1.2977,1.291,1.2821,1.2761,1.264,1.2593,1.2521,1.2476,1.2469,1.2429,1.2488,1.2478,1.2415,1.2414,1.2413,1.2413,1.2412,1.3165,1.3137,1.3084,1.2989,1.2924,1.2814,1.2752,1.2671,1.2593,1.2586,1.2546,1.2544,1.2533,1.2573,1.2573,1.2573,1.2573,1.2573,1.2574,1.326,1.3198,1.3159,1.3062,1.3014,1.2938,1.2814,1.2761,1.2681,1.2627,1.2626,1.2557,1.2509,1.25,1.2576,1.2576,1.2575,1.2575,1.2575,1.3319,1.3294,1.3234,1.3186,1.3066,1.3007,1.2905,1.2806,1.2749,1.2721,1.2653,1.2631,1.2596,1.2588,1.258,1.2671,1.2671,1.2671,1.2671,1.338,1.3356,1.3278,1.3207,1.3126,1.303,1.296,1.2863,1.2756,1.2716,1.269,1.2672,1.2668,1.2634,1.2626,1.2617,1.2716,1.2716,1.2716,1.3412,1.3377,1.3337,1.324,1.314,1.3055,1.2987,1.2904,1.2777,1.2716,1.2682,1.268,1.265,1.2644,1.2584,1.2573,1.2554,0,0]}]]